Lapse_Rate
7.7 7.7 7.6 7.5 7.3 7.2 7.3 7.5 7.8 7.9 7.8 7.8 7.7 7.7 7.7 7.7 7.5 7.4 7.3 7.3 7.2 7.1 7.2 7.3 7.3 7.3 7.1 6.9 6.9 6.8 6.8 6.9
7.5 7.6 7.6 7.5 7.3 7.2 7.2 7.4 7.6 7.8 7.7 7.8 7.9 7.6 7.6 7.6 7.5 7.4 7.4 7.3 7.3 7.2 7.1 7.2 7.2 7.4 7.4 7.2 7.1 7.0 7.0 7.0
7.5 7.2 7.2 7.3 7.5 7.5 7.5 7.5 7.6 7.6 7.7 7.7 8.0 7.6 7.6 7.6 7.5 7.4 7.3 7.3 7.3 7.3 7.1 7.0 7.0 7.2 7.4 7.4 7.2 7.1 7.1 7.2
7.4 7.4 7.3 7.3 7.4 7.5 7.5 7.5 7.6 7.7 7.7 7.7 7.6 7.5 7.6 7.6 7.5 7.6 7.5 7.3 7.3 7.3 7.3 7.0 6.9 6.9 7.1 7.2 7.2 7.2 7.2 7.3
7.1 7.3 7.3 7.4 7.3 7.2 7.3 7.4 7.4 7.4 7.7 7.7 7.6 7.6 7.6 7.6 7.6 7.6 7.5 7.4 7.4 7.4 7.3 7.1 6.8 6.7 6.8 6.8 6.7 6.7 6.9 7.0
7.1 7.1 7.1 7.3 7.2 7.2 7.2 7.3 7.2 7.2 7.3 7.2 7.3 7.5 7.5 7.5 7.5 7.6 7.6 7.4 7.5 7.5 7.3 7.2 7.1 6.9 6.7 6.7 6.6 6.5 6.4 6.5
7.0 7.1 7.2 7.2 7.2 7.2 7.3 7.2 7.1 7.2 7.4 7.5 7.6 7.7 7.7 7.6 7.6 7.5 7.6 7.5 7.4 7.4 7.5 7.2 7.0 7.1 6.8 6.6 6.7 6.6 6.5 6.4
6.8 6.8 6.9 7.0 7.2 7.3 7.3 7.5 7.4 7.2 7.2 7.4 7.5 7.6 7.7 7.7 7.6 7.5 7.6 7.7 7.6 7.6 7.5 7.4 7.1 6.9 6.9 6.8 6.7 6.6 6.6 6.5
6.9 6.7 6.8 6.8 6.8 6.7 6.8 7.1 7.4 7.5 7.4 7.3 7.4 7.4 7.4 7.4 7.5 7.6 7.5 7.4 7.4 7.7 7.7 7.5 7.4 7.2 6.9 6.8 6.7 6.7 6.7 6.6
7.2 7.0 6.8 6.8 6.7 6.8 6.8 6.9 7.1 7.1 7.0 7.1 7.3 7.3 7.3 7.3 7.3 7.3 7.5 7.4 7.3 7.2 7.5 7.7 7.5 7.4 7.3 7.2 7.1 6.9 6.6 6.6
7.4 7.5 7.5 7.4 7.1 6.9 6.9 6.9 6.9 7.0 7.0 6.9 7.1 7.0 7.1 7.1 7.2 7.1 7.2 7.4 7.4 7.3 7.2 7.4 7.4 7.3 7.2 7.1 7.1 7.0 6.9 6.7
7.3 7.3 7.4 7.3 7.3 7.3 7.1 7.0 7.0 7.0 7.1 7.0 6.8 6.9 6.9 6.8 6.9 7.0 7.1 7.1 7.3 7.4 7.4 7.2 7.1 7.1 7.2 7.1 7.0 7.0 6.9 6.7
7.4 7.5 7.5 7.4 7.5 7.5 7.4 7.4 7.2 7.1 7.2 7.1 6.8 6.7 6.6 6.7 6.8 6.8 6.7 6.8 6.9 6.8 6.8 6.9 6.9 7.1 7.0 7.0 7.0 6.8 6.7 6.8
7.6 7.6 7.7 7.6 7.5 7.4 7.4 7.6 7.6 7.4 7.4 7.3 7.2 6.9 6.8 6.8 6.8 6.8 6.9 6.7 6.4 6.5 6.6 6.9 6.9 6.9 6.8 6.8 6.5 6.7 6.8 6.8
7.2 7.4 7.5 7.6 7.6 7.6 7.6 7.5 7.4 7.6 7.5 7.3 7.2 6.9 6.5 6.5 6.5 6.5 6.6 6.7 6.7 6.4 6.4 6.5 6.6 6.6 6.5 6.6 6.6 6.6 7.0 6.9
6.5 6.6 6.7 7.0 7.1 7.1 6.8 6.8 7.0 7.3 7.5 7.5 7.4 7.3 7.0 6.8 6.6 6.6 6.5 6.6 6.8 6.6 6.5 6.3 6.2 6.4 6.4 6.4 6.6 6.7 6.6 6.7
6.4 6.2 6.2 6.2 6.5 6.8 6.9 6.7 6.8 7.0 7.2 7.4 7.5 7.6 7.6 7.4 7.0 6.9 6.8 6.7 6.5 6.5 6.4 6.3 6.2 6.0 6.1 6.3 6.3 6.4 6.5 6.6
6.0 6.1 6.2 6.2 6.4 6.6 6.8 6.9 6.9 6.7 6.8 7.0 7.3 7.3 7.3 7.3 7.0 6.9 7.0 6.7 6.6 6.4 6.4 6.3 6.3 6.1 5.9 6.0 6.2 6.2 6.1 6.1
6.0 6.2 6.4 6.6 6.7 6.6 6.3 6.5 6.9 7.1 7.0 6.9 6.9 7.1 7.2 7.2 7.0 6.8 6.6 6.7 6.5 6.3 6.4 6.3 6.2 5.5 4.9 5.4 5.3 5.2 5.4 5.3
6.1 6.0 6.0 6.0 6.0 6.3 6.5 6.7 6.9 6.9 7.1 7.1 6.9 6.8 7.1 7.3 7.5 7.3 6.8 6.2 6.8 6.8 6.3 6.4 5.7 5.5 4.8 4.1 3.7 3.9 4.0 4.9
Wind_Speed
12 15 18 20 20 20 21 20 20 19 19 18 17 16 15 14 13 12 14 13 11 13 13 10 11 10 10 13 14 12 10 10
11 13 13 14 16 20 22 21 21 20 18 17 16 15 14 12 11 11 11 10 10 11 14 12 10 10 13 14 15 14 12 12
11 12 14 14 15 15 17 19 20 20 18 17 16 12 12 12 9 10 9 8 8 11 12 11 11 12 13 16 14 11 12 10
10 10 11 13 13 13 14 14 15 16 16 16 13 12 11 9 9 9 10 10 9 10 9 9 9 8 9 11 9 12 11 10
14 12 13 13 10 12 12 12 11 12 15 15 12 11 10 9 8 9 8 10 9 9 9 5 4 6 8 7 8 8 8 7
15 16 11 13 13 11 13 11 13 11 13 13 11 8 9 8 8 8 7 7 7 7 6 8 7 6 7 8 6 6 6 6
14 14 10 13 13 10 11 10 12 14 15 15 14 11 7 10 9 8 7 6 6 6 6 9 9 9 9 8 7 6 6 6
11 11 9 10 11 12 9 13 15 15 16 16 18 14 12 10 9 9 9 10 9 9 8 8 8 10 8 9 8 8 8 7
12 10 8 9 12 10 9 12 13 11 13 15 15 15 14 13 8 8 11 11 11 12 11 11 8 9 8 8 8 8 9 9
11 10 10 11 10 10 9 13 13 12 13 11 14 16 16 14 9 9 14 15 13 9 9 9 8 8 8 7 7 9 9 9
13 12 11 11 9 10 12 12 10 13 12 12 12 15 17 15 10 11 17 13 11 10 10 11 10 9 8 7 6 6 9 10
8 9 12 11 8 7 7 8 10 12 8 12 13 15 18 16 12 11 15 10 10 11 13 10 11 11 10 8 6 4 6 7
7 4 9 9 6 5 5 6 6 8 10 15 16 16 19 17 9 9 11 10 11 12 11 14 10 11 10 7 5 4 4 4
9 7 4 9 10 8 5 5 6 8 8 12 17 18 20 14 14 13 13 10 12 14 14 12 8 13 9 9 5 3 3 3
12 11 11 7 9 5 2 2 2 0 4 7 11 17 19 19 15 13 13 12 11 14 15 18 11 13 13 6 5 6 9 4
12 12 13 11 5 6 6 7 7 7 8 7 10 16 14 18 17 15 14 12 13 14 13 14 11 14 10 3 1 9 5 6
9 11 12 11 10 8 6 9 8 6 4 7 9 9 12 12 14 16 15 11 13 14 15 15 12 12 12 8 5 4 6 4
7 9 9 10 10 9 8 8 11 7 7 7 7 6 7 10 11 12 13 13 13 11 13 16 14 12 12 10 9 6 8 4
7 7 7 7 7 8 9 10 11 14 12 8 9 7 6 9 11 10 10 11 10 11 10 10 8 10 12 9 8 6 6 5
9 9 10 8 8 7 8 9 7 9 11 10 9 8 8 10 9 9 10 10 9 8 7 7 8 6 9 5 4 3 5 6
Wind_Direction
166 174 170 165 167 167 167 163 157 158 160 163 161 160 159 157 155 149 141 144 152 132 132 140 136 132 122 126 125 121 127 127
173 180 182 181 180 178 176 169 167 167 166 167 166 160 160 161 159 156 149 153 152 134 139 144 139 134 128 132 131 127 132 131
186 186 190 188 186 187 183 176 175 171 170 171 163 169 168 166 166 162 152 157 146 133 140 141 129 134 132 140 142 143 137 133
202 197 202 198 195 189 192 189 186 182 179 173 175 168 171 167 166 162 153 152 142 132 138 134 143 147 141 140 149 146 144 142
201 202 206 206 202 195 195 194 193 189 183 177 172 165 165 170 168 170 168 157 157 152 147 159 162 159 156 149 139 143 137 123
202 203 194 204 204 203 199 196 191 186 184 177 172 173 176 173 182 173 176 179 163 162 159 150 144 138 139 129 124 123 119 111
210 211 205 207 207 204 201 202 196 187 182 185 184 186 183 179 178 177 181 177 173 159 150 151 140 136 129 126 117 107 99 97
219 216 222 223 211 208 206 209 204 195 193 192 192 191 188 184 176 180 180 181 164 158 152 147 140 140 129 131 129 122 110 104
211 195 193 208 212 218 218 217 211 210 206 195 202 201 200 192 184 179 176 173 156 148 142 141 140 139 132 130 128 122 119 110
222 213 201 201 203 207 215 213 210 217 215 186 199 208 202 198 194 190 177 168 166 162 159 153 153 155 148 144 139 132 126 119
233 220 210 206 210 209 214 217 215 217 221 206 197 211 212 208 202 189 178 176 174 168 168 163 159 156 148 141 140 138 139 136
255 241 228 216 204 207 216 218 220 215 206 211 200 203 211 213 216 196 186 185 182 177 168 171 166 157 146 136 132 129 135 140
37 292 240 231 213 201 210 218 221 225 224 212 197 205 208 205 213 211 203 198 186 181 170 163 162 154 135 126 111 115 134 136
22 11 313 255 243 225 216 204 221 225 219 225 223 212 205 197 204 205 199 196 189 182 175 170 164 176 165 147 162 154 153 147
10 4 348 310 254 249 67 38 43 70 233 231 226 219 215 211 203 199 195 196 194 190 185 180 172 186 179 149 159 192 157 167
10 7 7 7 322 247 190 216 226 219 221 211 217 219 218 215 215 207 198 197 196 193 191 193 179 183 193 195 205 140 174 167
1 4 10 3 359 330 273 251 258 272 231 219 219 211 210 210 211 212 208 201 200 192 191 198 196 187 188 173 156 148 144 152
356 359 358 356 348 341 317 284 269 255 242 244 234 218 210 213 211 210 208 205 198 192 191 197 197 198 195 191 185 171 171 159
329 330 325 331 327 329 324 305 286 276 265 249 229 214 208 210 200 200 201 200 194 187 181 185 188 195 194 190 202 189 158 145
318 316 313 314 310 312 309 307 298 283 273 262 253 239 216 193 183 173 147 145 150 147 149 150 150 148 159 161 162 157 171 166